Location: Boston
(42.3580°N, 71.0600°W)
Time: 03:11:20
(UTC-04:00)

Tiangong 1 - Pass Details

Date: 07 October 2017
Orbit: 293 x 320 km, 42.8° (Epoch: 19 October)

Event Time Altitude Azimuth Distance (km) Brightness Sun altitude
Rises 18:47:52 0° 242° (WSW) 2,036 6.0 -6.9°
Reaches altitude 10° 18:49:53 10° 236° (SW) 1,203 4.6 -7.3°
Maximum altitude 18:52:28 45° 161° (SSE) 436 1.2 -7.7°
Enters shadow 18:54:47 12° 88° (E) 1,084 2.6 -8.2°
